[[{"header":{"parameterUnit":"m.s-1","parameterCategory":1,"la1":30.2992,"la2":30.254,"lo1":-89.0895,"lo2":-89.0443,"dy":0.0025,"dx":0.0025,"nx":19,"ny":19,"refTime":"2026-05-24T09:00:00:Z","depth":0,"parameterNumber":2,"parameterNumberName":"U-component_of_WINDS"},"data":[0,0,0,-4.4575,-4.4578,-4.4741,-4.4742,-4.4959,-4.4961,0,0,0,0,0,0,0,0,0,0,0,-4.4533,-4.4535,-4.4574,-4.4579,-4.4741,-4.4742,-4.4958,-4.4961,0,0,0,0,0,0,0,0,0,0,0,-4.4532,-4.4534,-4.4536,-4.4579,-4.4741,-4.4742,-4.4958,-4.4832,0,0,0,0,0,0,0,0,0,0,-4.4672,-4.464,-4.4534,-4.4536,-4.458,-4.4741,-4.4742,-4.4825,-4.4839,-4.4889,0,-4.4936,0,-4.4952,-4.4976,-4.4977,0,0,0,-4.4573,-4.4628,-4.4666,-4.4537,-4.4582,-4.4741,-4.4666,-4.4833,-4.4849,-4.4908,-4.4939,-4.4947,-4.4955,-4.4977,-4.4978,-4.5282,-4.5283,0,0,-4.4564,-4.4566,-4.4655,-4.4677,-4.4654,-4.4661,-4.4672,-4.4843,-4.4876,-4.494,-4.4951,-4.4959,-4.4979,-4.4981,-4.528,-4.5282,0,0,0,-4.4542,-4.4559,-4.4593,-4.4669,-4.4697,-4.4666,-4.4678,-4.4869,-4.4879,-4.4954,-4.4962,-4.498,-4.4983,-4.5279,-4.5281,-4.5362,0,0,0,-4.4536,-4.4546,-4.4589,-4.4592,-4.4694,-4.4785,-4.47,-4.4868,-4.4887,-4.496,-4.498,-4.4985,-4.5277,-4.528,-4.5356,-4.5399,0,0,0,-4.452,-4.4544,-4.457,-4.4591,-4.4662,-4.4783,-4.4803,-4.4872,-4.4892,-4.4977,-4.4986,-4.5275,-4.5279,-4.535,-4.539,-4.5477,0,0,0,-4.4503,-4.4641,-4.4572,-4.473,-4.466,-4.4833,-4.4802,-4.493,-4.5013,-4.4981,-4.5277,-4.5281,-4.5349,-4.5385,-4.5471,-4.5547,-4.558,0,0,-4.4678,-4.4663,-4.4755,-4.4698,-4.4882,-4.4808,-4.5004,-4.5079,-4.5086,-4.5216,-4.5223,-4.5358,-4.5389,-4.5475,-4.577,-4.5797,0,0,0,-4.4811,-4.4877,-4.4926,-4.5005,-4.5066,-4.512,-4.5165,-4.5192,-4.5302,-4.5154,-4.5414,-4.5433,-4.5483,-4.552,-4.5542,-4.5583,-4.5299,-4.5298,-4.5298,-4.5059,-4.5061,-4.5213,-4.5234,-4.5311,-4.5356,-4.5417,-4.5461,-4.5441,-4.5503,-4.554,-4.5719,-4.5762,-4.5778,-4.5822,-4.5584,-4.5584,-4.5584,-4.5585,-4.5313,-4.5406,-4.5376,-4.5512,-4.5513,-4.5627,-4.5675,-4.5657,-4.5762,-4.5692,-4.5736,-4.5655,-4.5807,-4.5845,-4.5591,-4.559,-4.5589,-4.5588,-4.5588,-4.5473,-4.5517,-4.5549,-4.5661,-4.5748,-4.5765,-4.5867,-4.5865,-4.5863,-4.5907,-4.5944,-4.5943,-4.5938,-4.5926,-4.5927,-4.5927,-4.5928,-4.5928,-4.5929,-4.5625,-4.5658,-4.5744,-4.582,-4.5868,-4.5933,-4.5978,-4.6026,-4.6078,-4.6068,-4.6069,-4.604,-4.5823,-4.5766,-4.5938,-4.5936,-4.5935,-4.5934,-4.5934,-4.5876,-4.5818,-4.5952,-4.6001,-4.6088,-4.6172,-4.6169,-4.6266,-4.6306,-4.6355,-4.6319,-4.616,-4.6143,-4.6125,-4.6078,-4.632,-4.632,-4.632,-4.632,-4.6007,-4.6,-4.6134,-4.6212,-4.6289,-4.6299,-4.6447,-4.6483,-4.6512,-4.6536,-4.6502,-4.644,-4.6422,-4.6416,-4.6392,-4.6347,-4.6653,-4.6653,-4.6653,-4.616,-4.6159,-4.6286,-4.6314,-4.6381,-4.6439,-4.6577,-4.6667,-4.6688,-4.6667,-4.6554,-4.654,-4.6441,-4.6409,-4.6382,-4.6345,-4.6263,0,0]},{"header":{"parameterUnit":"m.s-1","parameterCategory":1,"la1":30.2992,"la2":30.254,"lo1":-89.0895,"lo2":-89.0443,"dy":0.0025,"dx":0.0025,"nx":19,"ny":19,"refTime":"2026-05-24T09:00:00:Z","depth":0,"parameterNumber":3,"parameterNumberName":"V-component_of_WINDS"},"data":[0,0,0,2.7896,2.7898,2.7995,2.7995,2.8114,2.8116,0,0,0,0,0,0,0,0,0,0,0,2.7866,2.7867,2.7896,2.7898,2.7995,2.7996,2.8114,2.8116,0,0,0,0,0,0,0,0,0,0,0,2.7866,2.7867,2.7868,2.7899,2.7995,2.7996,2.8114,2.8042,0,0,0,0,0,0,0,0,0,0,2.7949,2.7921,2.7867,2.7868,2.7899,2.7995,2.7996,2.8039,2.8047,2.8069,0,2.809,0,2.8105,2.8123,2.8124,0,0,0,2.7898,2.7914,2.7941,2.7868,2.79,2.7995,2.7951,2.8043,2.8052,2.8079,2.8092,2.8097,2.8107,2.8124,2.8125,2.8258,2.8258,0,0,2.7893,2.7882,2.7935,2.7947,2.7934,2.7948,2.7954,2.8049,2.8061,2.8093,2.81,2.8109,2.8125,2.8126,2.8257,2.8258,0,0,0,2.7877,2.7879,2.7904,2.7942,2.796,2.7951,2.7958,2.8057,2.8066,2.8101,2.811,2.8126,2.8127,2.8257,2.8257,2.8277,0,0,0,2.7874,2.787,2.7902,2.7896,2.7958,2.801,2.7964,2.8059,2.807,2.811,2.8126,2.8128,2.8256,2.8257,2.8275,2.8288,0,0,0,2.786,2.7868,2.7882,2.7895,2.7937,2.8009,2.8024,2.8062,2.8076,2.8124,2.8128,2.8255,2.8257,2.8274,2.8285,2.8319,0,0,0,2.7841,2.7898,2.7882,2.7949,2.7936,2.8022,2.8023,2.8087,2.813,2.8126,2.8256,2.8257,2.8273,2.8283,2.8317,2.8344,2.8356,0,0,2.7906,2.7905,2.7945,2.7934,2.802,2.8008,2.8096,2.8144,2.8158,2.8223,2.8227,2.8276,2.8285,2.8318,2.8424,2.8433,0,0,0,2.7962,2.799,2.8016,2.8057,2.8097,2.8132,2.8169,2.8187,2.8243,2.819,2.8299,2.8304,2.8324,2.8338,2.8345,2.8362,2.8264,2.8264,2.8263,2.8037,2.8053,2.812,2.8147,2.8188,2.8226,2.8259,2.829,2.8293,2.8318,2.8337,2.8399,2.8415,2.842,2.8438,2.8354,2.8354,2.8354,2.8354,2.8132,2.8174,2.8179,2.8245,2.8261,2.8316,2.8355,2.8355,2.8407,2.8386,2.8405,2.8379,2.843,2.8446,2.8356,2.8356,2.8356,2.8355,2.8355,2.8182,2.8205,2.8228,2.829,2.8335,2.8361,2.8411,2.8424,2.8436,2.8454,2.8475,2.8474,2.8474,2.8464,2.8464,2.8464,2.8464,2.8464,2.8465,2.8223,2.8249,2.8291,2.8339,2.8367,2.8406,2.8445,2.8473,2.8506,2.8511,2.8511,2.851,2.8433,2.8412,2.8468,2.8467,2.8467,2.8467,2.8466,2.8311,2.8294,2.8358,2.8387,2.8444,2.8488,2.8504,2.856,2.8584,2.8608,2.8605,2.8546,2.8544,2.8539,2.8521,2.8602,2.8602,2.8602,2.8602,2.8351,2.8353,2.8422,2.8467,2.8512,2.8534,2.8604,2.8635,2.8664,2.868,2.867,2.8649,2.8643,2.8645,2.8637,2.8621,2.8726,2.8726,2.8726,2.8405,2.8412,2.847,2.8501,2.8546,2.8584,2.8651,2.87,2.873,2.8731,2.8692,2.8687,2.8653,2.8641,2.8639,2.8626,2.8597,0,0]}]]